Location: Melbourne
(37.8666°S, 145.1333°E)
Time: 07:11:27
(UTC+10:00)

Amateur Radio Satellites - All Passes

Search period start: 01 July 2016 06:41
Search period end: 02 July 2016 06:41
Location: Melbourne, 37.8666°S, 145.1333°E

Satellite Date Start Highest point End Downlink Frequencies (MHz)
Time Altitude Azimuth
CUTE 1.7 + AOD 2 01 Jul 06:42:35 06:45:38 19° 112° (ESE) 06:48:41 437.475
SEEDS 01 Jul 06:43:31 06:45:42 14° 114° (ESE) 06:47:54 437.485
CUSAT 1 01 Jul 06:54:55 07:01:26 39° 272° (W) 07:08:41 437.405
Cosmos 2499 01 Jul 06:55:02 07:02:35 68° 261° (W) 07:09:48 435.465 / 435.565
DOVE 4 01 Jul 07:00:23 07:05:27 63° 280° (W) 07:10:47 437.250
NOAA 15 01 Jul 07:03:37 07:06:26 14° 271° (W) 07:09:16 137.62
SRMSAT 01 Jul 07:05:23 07:07:37 12° 354° (N) 07:09:52 437.500
AAUSAT CUBESAT 2 01 Jul 07:15:38 07:18:25 18° 113° (ESE) 07:21:14 437.432
M-CUBED/EXP-1 PRIME 01 Jul 07:23:16 07:26:57 23° 117° (ESE) 07:30:38 437.505
CUBEBUG 2 01 Jul 07:24:18 07:27:56 22° 112° (ESE) 07:31:33 437.445
DANDE 01 Jul 07:38:08 07:43:52 36° 273° (W) 07:50:47 436.750
CINEMA 3 01 Jul 07:40:20 07:45:23 79° 282° (WNW) 07:50:29 145.822/145.860
ZACube-1 01 Jul 07:42:05 07:44:35 15° 114° (ESE) 07:47:04 437.345
Oscar 11 01 Jul 07:47:02 07:49:50 17° 113° (ESE) 07:52:39 145.826/435.025
COMPASS 1 01 Jul 07:50:27 07:54:32 57° 105° (ESE) 07:58:40 437.405
FUNcube-1 01 Jul 07:57:30 08:00:47 20° 112° (ESE) 08:04:03 145.935
CANX-2 01 Jul 07:57:30 08:01:36 48° 279° (W) 08:05:45 2200.000
PRISM 01 Jul 08:00:21 08:03:20 18° 86° (E) 08:06:17 437.425
UWE-3 01 Jul 08:06:06 08:10:27 40° 108° (ESE) 08:14:46 435.000/436.395/437.385
STRAND 1 01 Jul 08:09:20 08:14:20 51° 252° (WSW) 08:19:18 437.568
AO-85 01 Jul 08:11:28 08:15:03 40° 65° (ENE) 08:18:48 145.980
AUBIESAT-1 01 Jul 08:15:12 08:19:49 63° 110° (ESE) 08:24:27 437.475
SEEDS 01 Jul 08:16:56 08:20:58 46° 279° (W) 08:25:04 437.485
CUTE 1.7 + AOD 2 01 Jul 08:17:24 08:21:13 32° 277° (W) 08:25:05 437.475
HO-68 01 Jul 08:22:35 08:29:21 43° 279° (W) 08:36:11 435.675
RS-15 01 Jul 08:35:01 08:46:00 90° 309° (NW) 08:57:01 29.354- 29.394
GONETS M04 01 Jul 08:35:38 08:38:50 12° 239° (WSW) 08:42:04
HUMSAT D 01 Jul 08:36:21 08:37:55 12° 115° (ESE) 08:39:29 437.325/437.525
DELFI C3 01 Jul 08:42:49 08:46:15 29° 109° (ESE) 08:49:44 145.870
AAUSAT CUBESAT 2 01 Jul 08:49:51 08:53:37 34° 277° (W) 08:57:27 437.432
M-CUBED/EXP-1 PRIME 01 Jul 08:56:45 09:01:10 39° 283° (WNW) 09:05:39 437.505
CUBEBUG 2 01 Jul 08:59:56 09:04:19 36° 277° (W) 09:08:40 437.445
ZACube-1 01 Jul 09:15:59 09:20:26 51° 279° (W) 09:24:50 437.345
Oscar 11 01 Jul 09:21:32 09:25:37 40° 278° (W) 09:29:45 145.826/435.025
COMPASS 1 01 Jul 09:30:00 09:30:26 10° 270° (W) 09:30:52 437.405
UNISAT 6 01 Jul 09:31:39 09:33:21 12° 89° (E) 09:35:02 437.425
FUNcube-1 01 Jul 09:32:36 09:36:46 35° 277° (W) 09:40:54 145.935
PRISM 01 Jul 09:34:52 09:38:42 33° 251° (WSW) 09:42:29 437.425
UWE-3 01 Jul 09:43:51 09:47:01 18° 273° (W) 09:50:11 435.000/436.395/437.385
AUBIESAT-1 01 Jul 09:52:26 09:54:34 13° 276° (W) 09:56:42 437.475
AO-85 01 Jul 09:53:07 09:55:41 17° 226° (SW) 09:58:21 145.980
VELOX 1 01 Jul 09:54:34 09:55:03 10° 118° (ESE) 09:55:33 145.980
HUMSAT D 01 Jul 10:08:51 10:13:02 56° 280° (W) 10:17:12 437.325/437.525
ANTELSAT 01 Jul 10:09:28 10:13:25 33° 83° (E) 10:17:18 437.575/2403.000
DELFI C3 01 Jul 10:18:19 10:21:07 18° 274° (W) 10:23:57 145.870
50 SAT 01 Jul 10:21:20 10:23:48 18° 111° (ESE) 10:26:18 437.505
UKube-1 01 Jul 10:21:26 10:23:19 13° 117° (ESE) 10:25:12 .
AISAT 01 Jul 10:31:57 10:35:47 28° 111° (ESE) 10:39:39 437.250
ESTCUBE 1 01 Jul 10:36:59 10:41:19 49° 107° (ESE) 10:45:43 437.505/2401.250
DX 1 01 Jul 10:43:40 10:47:24 28° 111° (ESE) 10:51:11 434.975-435.025
YUBILEINY 01 Jul 10:46:12 10:54:28 43° 105° (ESE) 11:02:36 435.215
NANOSAT C BR1 01 Jul 10:49:29 10:51:40 14° 88° (E) 10:53:50 145.865
RS-15 01 Jul 10:49:50 10:56:44 19° 280° (W) 11:03:43 29.354- 29.394
QB50P1 01 Jul 10:53:25 10:56:08 16° 87° (E) 10:58:49 145.935-145.965
POPSAT HIP 1 01 Jul 10:56:44 10:59:37 17° 87° (E) 11:02:28 437.405
TIGRISAT 01 Jul 11:00:07 11:04:27 65° 255° (WSW) 11:08:40 435.000
UNISAT 6 01 Jul 11:06:08 11:10:23 51° 253° (WSW) 11:14:32 437.425
DUCHIFAT 1 01 Jul 11:07:58 11:11:14 21° 85° (E) 11:14:27 145.980
QB50P2 01 Jul 11:09:04 11:12:42 26° 84° (E) 11:16:16 145.880/145.840
POLYITAN 1 01 Jul 11:11:42 11:15:20 27° 84° (E) 11:18:56 437.675
CUBEBUG 1 01 Jul 11:11:57 11:16:21 81° 103° (ESE) 11:20:52 437.445
SO-50 01 Jul 11:12:46 11:16:56 31° 129° (SE) 11:21:09 436.795
VELOX 1 01 Jul 11:26:23 11:30:50 76° 282° (WNW) 11:35:23 145.980
JAS-2 01 Jul 11:28:27 11:33:26 18° 90° (E) 11:38:28 435.910
TISAT 1 01 Jul 11:30:03 11:31:46 12° 116° (ESE) 11:33:29 437.305
ANTELSAT 01 Jul 11:46:46 11:49:53 19° 247° (WSW) 11:52:57 437.575/2403.000
SPROUT 01 Jul 11:51:17 11:55:38 86° 103° (ESE) 12:00:03 437.525
BUGSAT 1 01 Jul 11:53:30 11:57:17 31° 83° (E) 12:00:57 437.445
Cosmos 2491 01 Jul 11:53:42 12:02:19 63° 89° (E) 12:11:02 435.465 / 435.565
50 SAT 01 Jul 11:54:12 11:57:17 25° 277° (W) 12:00:24 437.505
UKube-1 01 Jul 11:54:32 11:58:49 57° 281° (W) 12:03:10 .
PCSat 01 Jul 11:57:55 12:01:06 16° 76° (ENE) 12:04:17 145.827
AISAT 01 Jul 12:08:31 12:12:11 25° 276° (W) 12:15:55 437.250
ESTCUBE 1 01 Jul 12:15:58 12:18:23 14° 272° (W) 12:20:49 437.505/2401.250
Cosmos 2504 01 Jul 12:19:12 12:26:13 48° 102° (ESE) 12:33:29 435.465 / 435.565
DX 1 01 Jul 12:19:57 12:23:31 24° 276° (W) 12:27:09 434.975-435.025
NANOSAT C BR1 01 Jul 12:23:32 12:27:37 44° 253° (WSW) 12:31:39 145.865
QB50P1 01 Jul 12:28:04 12:32:02 37° 252° (WSW) 12:35:57 145.935-145.965
POPSAT HIP 1 01 Jul 12:31:35 12:35:30 35° 251° (WSW) 12:39:20 437.405
YUBILEINY 01 Jul 12:43:13 12:51:05 39° 266° (W) 12:58:53 435.215
DUCHIFAT 1 01 Jul 12:43:13 12:46:54 29° 250° (WSW) 12:50:32 145.980
QB50P2 01 Jul 12:44:56 12:48:22 24° 249° (WSW) 12:51:46 145.880/145.840
POLYITAN 1 01 Jul 12:47:36 12:51:00 23° 249° (WSW) 12:54:22 437.675
SO-50 01 Jul 12:53:15 12:57:20 29° 293° (WNW) 13:01:28 436.795
TISAT 1 01 Jul 13:02:39 13:06:52 57° 281° (W) 13:11:09 437.305
SWISSCUBE 01 Jul 13:04:08 13:08:14 29° 111° (ESE) 13:12:22 437.505
O/OREOS (USA 219) 01 Jul 13:05:22 13:09:06 25° 78° (ENE) 13:12:54 437.305
JAS-2 01 Jul 13:11:24 13:18:59 84° 255° (WSW) 13:26:54 435.910
BEESAT 3 01 Jul 13:19:03 13:22:55 59° 62° (ENE) 13:26:50 437.485
BEESAT 01 Jul 13:28:34 13:33:08 46° 108° (ESE) 13:37:45 436.000
BUGSAT 1 01 Jul 13:29:21 13:32:25 20° 247° (WSW) 13:35:25 437.445
ITUPSAT 1 01 Jul 13:31:15 13:35:51 49° 108° (ESE) 13:40:31 437.325
PCSat 01 Jul 13:38:32 13:43:54 63° 240° (WSW) 13:49:19 145.827
Oscar 19 01 Jul 13:51:18 13:56:36 85° 78° (ENE) 14:01:50 437.125/150
Cosmos 2491 01 Jul 13:52:37 13:59:44 27° 249° (WSW) 14:06:57 435.465 / 435.565
BEESAT 2 01 Jul 14:01:49 14:05:48 83° 240° (WSW) 14:09:50 435.950
Cosmos 2504 01 Jul 14:13:16 14:19:12 28° 266° (W) 14:25:20 435.465 / 435.565
ITAMSAT 1 01 Jul 14:20:12 14:24:17 23° 85° (E) 14:28:20 435.822/435.867
Gurwin Techsat 1B 01 Jul 14:28:25 14:33:51 82° 75° (ENE) 14:39:10 435.225
SWISSCUBE 01 Jul 14:41:55 14:45:57 27° 276° (W) 14:50:03 437.505
O/OREOS (USA 219) 01 Jul 14:44:21 14:48:22 29° 242° (WSW) 14:52:27 437.305
JAS-2 01 Jul 14:58:31 15:03:00 17° 239° (WSW) 15:07:38 435.910
BEESAT 3 01 Jul 14:59:01 15:00:59 13° 225° (SW) 15:02:56 437.485
AIST 2 01 Jul 15:06:04 15:09:21 23° 69° (ENE) 15:12:38 435.215
BEESAT 01 Jul 15:08:05 15:11:08 17° 273° (W) 15:14:13 436.000
ITUPSAT 1 01 Jul 15:11:00 15:13:56 16° 273° (W) 15:16:53 437.325
KKS-1 01 Jul 15:13:13 15:17:42 70° 105° (ESE) 15:22:14 437.445
MOZHAYETS 4 01 Jul 15:22:11 15:26:47 77° 104° (ESE) 15:31:25
PCSat 01 Jul 15:27:27 15:28:24 10° 220° (SW) 15:29:22 145.827
Oscar 19 01 Jul 15:33:21 15:35:08 12° 240° (WSW) 15:36:55 437.125/150
STARS 01 Jul 15:38:19 15:42:44 65° 105° (ESE) 15:47:13 437.465
AO-7 01 Jul 15:40:03 15:48:06 50° 79° (ENE) 15:56:06 29.400- 29.500
AIST 1 01 Jul 15:45:06 15:49:37 86° 276° (W) 15:54:02
ITAMSAT 1 01 Jul 15:58:58 16:03:51 40° 250° (WSW) 16:08:41 435.822/435.867
Gurwin Techsat 1B 01 Jul 16:10:48 16:13:01 13° 240° (WSW) 16:15:14 435.225
PHONESAT 2.4 01 Jul 16:11:43 16:13:46 16° 33° (NNE) 16:15:50 2401.200-2431.200
HORYU 2 01 Jul 16:31:57 16:35:43 26° 84° (E) 16:39:25 437.375
AO-85 01 Jul 16:43:23 16:47:31 28° 129° (SE) 16:51:54 145.980
AIST 2 01 Jul 16:43:57 16:47:39 30° 233° (SW) 16:51:25 435.215
GONETS M04 01 Jul 16:44:05 16:52:50 57° 102° (ESE) 17:01:25
Cosmos 2499 01 Jul 16:47:35 16:54:13 36° 105° (ESE) 17:01:08 435.465 / 435.565
CUBESAT XI-V 01 Jul 16:56:47 17:01:24 89° 96° (E) 17:06:08 437.345
STARS 01 Jul 17:18:50 17:19:30 10° 270° (W) 17:20:10 437.465
CUTE-I 01 Jul 17:21:00 17:23:15 13° 90° (E) 17:25:31 437.470
AO-7 01 Jul 17:33:13 17:40:34 36° 241° (WSW) 17:47:54 29.400- 29.500
NOAA 15 01 Jul 17:38:30 17:43:05 28° 84° (E) 17:47:35 137.62
STRAND 1 01 Jul 17:45:39 17:49:30 22° 115° (ESE) 17:53:22 437.568
PHONESAT 2.4 01 Jul 17:46:55 17:50:03 78° 17° (NNE) 17:53:13 2401.200-2431.200
BRITE-PL 01 Jul 17:54:29 18:00:02 47° 83° (E) 18:05:23 437.365/2234.400
LilacSat-2 01 Jul 17:55:38 17:58:46 23° 85° (E) 18:01:51 437.200
HORYU 2 01 Jul 18:08:27 18:12:11 26° 249° (WSW) 18:15:52 437.375
GOMX 1 01 Jul 18:15:02 18:19:58 33° 85° (E) 18:24:36 467.674
CUSAT 1 01 Jul 18:16:58 18:19:30 22° 93° (E) 18:22:29 437.405
AO-85 01 Jul 18:23:31 18:28:02 37° 295° (WNW) 18:32:48 145.980
Cubesat XI-IV 01 Jul 18:24:59 18:30:17 55° 79° (E) 18:35:31 437.490
Cosmos 2499 01 Jul 18:40:36 18:47:15 39° 269° (W) 18:54:15 435.465 / 435.565
NOAA 18 01 Jul 18:41:30 18:47:04 83° 76° (ENE) 18:52:33 137.9125
GONETS M04 01 Jul 18:41:49 18:49:03 29° 263° (W) 18:56:12
PRISM 01 Jul 18:49:58 18:51:09 11° 117° (ESE) 18:52:20 437.425
CUTE-I 01 Jul 18:58:26 19:03:48 72° 254° (WSW) 19:09:08 437.470
DOVE 4 01 Jul 19:01:46 19:06:40 44° 83° (E) 19:11:13 437.250
DANDE 01 Jul 19:06:06 19:08:17 22° 90° (E) 19:10:42 436.750
ISS 01 Jul 19:14:16 19:17:34 86° 40° (NE) 19:20:54 145.825
NOAA 15 01 Jul 19:18:00 19:22:50 35° 249° (WSW) 19:27:37 137.62
STRAND 1 01 Jul 19:23:29 19:28:20 42° 279° (W) 19:33:15 437.568
PHONESAT 2.4 01 Jul 19:23:42 19:26:47 50° 183° (S) 19:29:53 2401.200-2431.200
LilacSat-2 01 Jul 19:30:00 19:32:56 21° 250° (WSW) 19:35:50 437.200
BRITE-PL 01 Jul 19:33:35 19:38:06 24° 246° (WSW) 19:42:31 437.365/2234.400
COMPASS 1 01 Jul 19:37:50 19:38:40 10° 90° (E) 19:39:29 437.405
CINEMA 3 01 Jul 19:37:59 19:41:55 28° 85° (E) 19:45:41 145.822/145.860
CANX-2 01 Jul 19:44:22 19:48:14 31° 83° (E) 19:52:03 2200.000
HO-68 01 Jul 19:51:54 19:58:40 42° 81° (E) 20:05:21 435.675
GOMX 1 01 Jul 19:53:12 19:57:52 29° 248° (WSW) 20:02:18 467.674
CUSAT 1 01 Jul 19:59:40 20:01:39 15° 245° (WSW) 20:03:54 437.405
SEEDS 01 Jul 20:02:39 20:06:28 31° 83° (E) 20:10:15 437.485
CUTE 1.7 + AOD 2 01 Jul 20:03:36 20:07:45 46° 81° (E) 20:11:52 437.475
Cubesat XI-IV 01 Jul 20:06:15 20:09:52 19° 243° (WSW) 20:13:28 437.490
PRISM 01 Jul 20:21:51 20:25:54 59° 281° (WNW) 20:30:02 437.425
NOAA 18 01 Jul 20:24:29 20:26:56 13° 239° (WSW) 20:29:23 137.9125
UNISAT 6 01 Jul 20:29:56 20:30:56 11° 117° (ESE) 20:31:56 437.425
AAUSAT CUBESAT 2 01 Jul 20:33:32 20:37:31 39° 82° (E) 20:41:28 437.432
M-CUBED/EXP-1 PRIME 01 Jul 20:39:36 20:42:03 16° 83° (E) 20:44:22 437.505
DOVE 4 01 Jul 20:40:16 20:43:56 20° 245° (WSW) 20:47:26 437.250
PCSat 01 Jul 20:47:20 20:49:10 12° 138° (SE) 20:51:01 145.827
RS-15 01 Jul 20:50:29 20:55:52 14° 82° (E) 21:01:08 29.354- 29.394
ISS 01 Jul 20:52:15 20:54:24 16° 203° (SSW) 20:56:34 145.825
CUBEBUG 2 01 Jul 20:52:32 20:56:47 54° 80° (E) 21:00:53 437.445
PHONESAT 2.4 01 Jul 21:00:26 21:03:37 77° 164° (SSE) 21:06:45 2401.200-2431.200
ANTELSAT 01 Jul 21:06:23 21:10:16 26° 111° (ESE) 21:14:07 437.575/2403.000
ZACube-1 01 Jul 21:06:28 21:10:17 32° 83° (E) 21:14:03 437.345
Oscar 11 01 Jul 21:10:19 21:14:28 40° 82° (E) 21:18:33 145.826/435.025
COMPASS 1 01 Jul 21:10:23 21:14:33 57° 255° (WSW) 21:18:41 437.405
CINEMA 3 01 Jul 21:15:13 21:18:55 24° 248° (WSW) 21:22:29 145.822/145.860
CANX-2 01 Jul 21:20:43 21:23:51 20° 248° (WSW) 21:26:59 2200.000
FUNcube-1 01 Jul 21:22:14 21:26:19 47° 81° (E) 21:30:19 145.935
AUBIESAT-1 01 Jul 21:30:58 21:34:53 57° 75° (ENE) 21:38:26 437.475
UWE-3 01 Jul 21:33:48 21:38:04 72° 255° (WSW) 21:42:14 435.000/436.395/437.385
BEESAT 3 01 Jul 21:38:28 21:41:30 21° 130° (SE) 21:44:31 437.485
SEEDS 01 Jul 21:38:49 21:41:56 20° 248° (WSW) 21:45:03 437.485
HO-68 01 Jul 21:39:49 21:46:13 36° 244° (WSW) 21:52:34 435.675
CUTE 1.7 + AOD 2 01 Jul 21:40:51 21:43:10 14° 246° (WSW) 21:45:29 437.475
QB50P1 01 Jul 21:45:57 21:47:02 11° 117° (ESE) 21:48:07 145.935-145.965
POPSAT HIP 1 01 Jul 21:48:59 21:50:30 12° 116° (ESE) 21:52:03 437.405
HUMSAT D 01 Jul 21:54:30 21:57:56 25° 84° (E) 22:01:19 437.325/437.525
TIGRISAT 01 Jul 21:56:10 22:00:51 86° 103° (ESE) 22:05:31 435.000
DELFI C3 01 Jul 21:56:14 22:00:16 62° 79° (E) 22:04:17 145.870
DUCHIFAT 1 01 Jul 21:59:10 22:01:21 14° 115° (ESE) 22:03:34 145.980
QB50P2 01 Jul 22:00:36 22:03:26 17° 114° (ESE) 22:06:17 145.880/145.840
UNISAT 6 01 Jul 22:02:19 22:07:00 77° 282° (WNW) 22:11:39 437.425
POLYITAN 1 01 Jul 22:03:11 22:06:05 18° 113° (ESE) 22:08:59 437.675
Cosmos 2491 01 Jul 22:06:58 22:14:25 29° 110° (ESE) 22:21:46 435.465 / 435.565
AAUSAT CUBESAT 2 01 Jul 22:10:04 22:12:39 16° 247° (WSW) 22:15:14 437.432
M-CUBED/EXP-1 PRIME 01 Jul 22:13:06 22:16:45 32° 245° (WSW) 22:20:06 437.505
BEESAT 2 01 Jul 22:21:44 22:25:21 32° 127° (SE) 22:28:55 435.950
PCSat 01 Jul 22:28:06 22:33:34 71° 119° (ESE) 22:38:58 145.827
CUBEBUG 2 01 Jul 22:31:09 22:32:52 12° 244° (WSW) 22:34:34 437.445
ESTCUBE 1 01 Jul 22:33:21 22:35:07 12° 89° (E) 22:36:52 437.505/2401.250
PHONESAT 2.4 01 Jul 22:37:22 22:40:03 25° 331° (NNW) 22:42:41 2401.200-2431.200
BUGSAT 1 01 Jul 22:41:55 22:44:56 19° 113° (ESE) 22:47:59 437.445
ANTELSAT 01 Jul 22:42:50 22:46:51 28° 276° (W) 22:50:51 437.575/2403.000
ZACube-1 01 Jul 22:43:23 22:46:19 19° 247° (WSW) 22:49:14 437.345
Oscar 11 01 Jul 22:47:27 22:50:15 17° 247° (WSW) 22:53:01 145.826/435.025
RS-15 01 Jul 22:54:33 23:06:18 74° 64° (ENE) 23:17:32 29.354- 29.394
FUNcube-1 01 Jul 23:00:05 23:02:07 13° 245° (WSW) 23:04:09 145.935
CUBEBUG 1 01 Jul 23:03:29 23:06:31 18° 87° (E) 23:09:30 437.445
AUBIESAT-1 01 Jul 23:07:52 23:08:43 11° 237° (WSW) 23:09:34 437.475
NANOSAT C BR1 01 Jul 23:13:08 23:17:27 80° 281° (W) 23:21:48 145.865
BEESAT 3 01 Jul 23:15:43 23:19:13 31° 294° (WNW) 23:22:42 437.485
O/OREOS (USA 219) 01 Jul 23:16:28 23:20:47 36° 117° (ESE) 23:25:02 437.305
QB50P1 01 Jul 23:17:56 23:22:13 66° 280° (W) 23:26:33 145.935-145.965
VELOX 1 01 Jul 23:18:57 23:22:35 23° 85° (E) 23:26:10 145.980
POPSAT HIP 1 01 Jul 23:21:27 23:25:44 61° 281° (W) 23:30:04 437.405
JAS-2 01 Jul 23:22:59 23:27:51 33° 114° (ESE) 23:33:13 435.910
50 SAT 01 Jul 23:24:33 23:27:45 27° 83° (E) 23:30:57 437.505
AIST 2 01 Jul 23:30:04 23:31:29 11° 137° (SE) 23:32:53 435.215
HUMSAT D 01 Jul 23:30:09 23:33:27 23° 249° (WSW) 23:36:44 437.325/437.525
Oscar 19 01 Jul 23:30:41 23:32:47 12° 119° (ESE) 23:34:54 437.125/150
DUCHIFAT 1 01 Jul 23:32:25 23:36:36 50° 280° (W) 23:40:49 145.980
QB50P2 01 Jul 23:34:51 23:38:54 39° 278° (W) 23:43:00 145.880/145.840
POLYITAN 1 01 Jul 23:37:31 23:41:32 38° 278° (W) 23:45:38 437.675
SPROUT 01 Jul 23:40:16 23:43:07 17° 87° (E) 23:45:57 437.525
UKube-1 01 Jul 23:43:50 23:47:33 26° 84° (E) 23:51:13 .
YUBILEINY 01 Jul 23:44:24 23:52:51 53° 90° (E) 00:01:19 435.215
AISAT 01 Jul 23:59:29 00:04:02 72° 77° (ENE) 00:08:30 437.250
BEESAT 2 02 Jul 00:00:03 00:02:57 19° 291° (WNW) 00:05:49 435.950
Cosmos 2491 02 Jul 00:03:02 00:11:44 60° 271° (W) 00:20:20 435.465 / 435.565
ESTCUBE 1 02 Jul 00:07:43 00:12:16 59° 254° (WSW) 00:16:46 437.505/2401.250
ISS 02 Jul 00:08:23 00:09:46 12° 162° (SSE) 00:11:09 145.825
DX 1 02 Jul 00:08:53 00:13:20 66° 78° (ENE) 00:17:42 434.975-435.025
Gurwin Techsat 1B 02 Jul 00:11:12 00:13:44 14° 119° (ESE) 00:16:16 435.225
PCSat 02 Jul 00:13:35 00:16:17 14° 283° (WNW) 00:18:59 145.827
BUGSAT 1 02 Jul 00:16:06 00:20:02 35° 278° (W) 00:24:01 437.445
CUBEBUG 1 02 Jul 00:38:44 00:42:56 39° 252° (WSW) 00:47:03 437.445
TISAT 1 02 Jul 00:48:55 00:52:25 24° 84° (E) 00:55:52 437.305
AO-7 02 Jul 00:51:10 00:53:53 12° 133° (SE) 00:56:36 29.400- 29.500
VELOX 1 02 Jul 00:55:04 00:59:00 30° 249° (WSW) 01:02:54 145.980
Cosmos 2504 02 Jul 00:55:24 01:02:42 43° 91° (E) 01:09:38 435.465 / 435.565
O/OREOS (USA 219) 02 Jul 00:56:33 00:59:53 20° 280° (W) 01:03:12 437.305
50 SAT 02 Jul 00:58:42 01:01:13 17° 248° (WSW) 01:03:44 437.505
Oscar 19 02 Jul 01:06:10 01:11:21 80° 283° (WNW) 01:16:39 437.125/150
AIST 2 02 Jul 01:06:20 01:10:31 82° 297° (WNW) 01:14:38 435.215
JAS-2 02 Jul 01:08:06 01:12:54 31° 274° (W) 01:18:11 435.910
RS-15 02 Jul 01:09:20 01:19:39 35° 222° (SW) 01:29:38 29.354- 29.394
SPROUT 02 Jul 01:15:10 01:19:11 37° 252° (WSW) 01:23:09 437.525
UKube-1 02 Jul 01:19:52 01:23:29 25° 248° (WSW) 01:27:04 .
SO-50 02 Jul 01:27:55 01:29:46 12° 72° (ENE) 01:31:38 436.795
BEESAT 02 Jul 01:32:08 01:34:32 14° 88° (E) 01:36:55 436.000
ITUPSAT 1 02 Jul 01:35:03 01:37:40 14° 88° (E) 01:40:16 437.325
ITAMSAT 1 02 Jul 01:36:18 01:40:47 30° 112° (ESE) 01:45:17 435.822/435.867
AISAT 02 Jul 01:38:43 01:39:51 11° 242° (WSW) 01:40:59 437.250
YUBILEINY 02 Jul 01:42:16 01:49:55 32° 252° (WSW) 01:57:38 435.215
ISS 02 Jul 01:43:36 01:46:51 50° 144° (SE) 01:50:05 145.825
DX 1 02 Jul 01:47:28 01:48:55 11° 243° (WSW) 01:50:21 434.975-435.025
Gurwin Techsat 1B 02 Jul 01:47:37 01:52:58 77° 282° (WNW) 01:58:22 435.225
JUGNU 02 Jul 01:56:02 01:57:35 11° 8° (N) 01:59:08 437.505
TISAT 1 02 Jul 02:24:26 02:27:59 25° 249° (WSW) 02:31:28 437.305
AO-7 02 Jul 02:36:46 02:44:53 58° 114° (ESE) 02:53:01 29.400- 29.500
SWISSCUBE 02 Jul 02:42:53 02:47:45 88° 76° (ENE) 02:52:33 437.505
Cosmos 2504 02 Jul 02:49:16 02:56:07 33° 254° (WSW) 03:02:41 435.465 / 435.565
SO-50 02 Jul 03:05:21 03:09:41 58° 237° (WSW) 03:14:05 436.795
KKS-1 02 Jul 03:07:25 03:10:06 15° 87° (E) 03:12:45 437.445
BEESAT 02 Jul 03:07:55 03:12:39 57° 253° (WSW) 03:17:21 436.000
ITUPSAT 1 02 Jul 03:11:05 03:15:48 54° 253° (WSW) 03:20:29 437.325
ITAMSAT 1 02 Jul 03:15:33 03:20:08 31° 277° (W) 03:24:46 435.822/435.867
MOZHAYETS 4 02 Jul 03:19:49 03:23:17 21° 86° (E) 03:26:44
ISS 02 Jul 03:21:02 03:22:59 15° 309° (NW) 03:24:55 145.825
HORYU 2 02 Jul 03:28:34 03:31:55 21° 113° (ESE) 03:35:16 437.375
RS-15 02 Jul 03:30:43 03:36:53 16° 188° (S) 03:42:58 29.354- 29.394
STARS 02 Jul 03:31:18 03:33:33 14° 88° (E) 03:35:45 437.465
JUGNU 02 Jul 03:43:18 03:45:42 13° 358° (N) 03:48:05 437.505
GONETS M04 02 Jul 03:54:17 03:55:55 11° 106° (ESE) 03:57:32
AIST 1 02 Jul 04:12:08 04:16:25 60° 85° (E) 04:20:49
NOAA 18 02 Jul 04:27:56 04:31:29 17° 118° (ESE) 04:35:01 137.9125
AO-7 02 Jul 04:30:59 04:37:58 29° 276° (W) 04:45:01 29.400- 29.500
LilacSat-2 02 Jul 04:38:28 04:39:03 10° 115° (ESE) 04:39:39 437.200
CUTE-I 02 Jul 04:40:29 04:44:11 19° 116° (ESE) 04:47:55 437.470
KKS-1 02 Jul 04:42:33 04:46:52 44° 252° (WSW) 04:51:07 437.445
CUSAT 1 02 Jul 04:48:37 04:54:55 32° 107° (ESE) 05:01:51 437.405
CUBESAT XI-V 02 Jul 04:55:37 04:59:36 26° 85° (E) 05:03:33 437.345
MOZHAYETS 4 02 Jul 04:56:17 05:00:31 35° 251° (WSW) 05:04:41
NOAA 15 02 Jul 04:56:40 05:01:29 37° 111° (ESE) 05:06:23 137.62
BRITE-PL 02 Jul 05:03:17 05:07:49 40° 110° (ESE) 05:12:45 437.365/2234.400
SRMSAT 02 Jul 05:03:47 05:06:21 13° 3° (N) 05:08:55 437.500
HORYU 2 02 Jul 05:04:06 05:08:13 35° 278° (W) 05:12:23 437.375
STARS 02 Jul 05:05:51 05:10:10 49° 253° (WSW) 05:14:25 437.465
GOMX 1 02 Jul 05:20:51 05:25:15 29° 112° (ESE) 05:29:53 467.674
Cosmos 2499 02 Jul 05:23:02 05:29:18 30° 94° (E) 05:35:19 435.465 / 435.565
DANDE 02 Jul 05:41:21 05:47:09 36° 104° (ESE) 05:54:08 436.750
GONETS M04 02 Jul 05:42:10 05:50:54 69° 87° (E) 05:59:46
Cubesat XI-IV 02 Jul 05:45:04 05:50:26 76° 106° (ESE) 05:55:50 437.490
RS-15 02 Jul 05:46:55 05:55:15 23° 151° (SSE) 06:03:28 29.354- 29.394
AIST 1 02 Jul 05:53:29 05:54:28 11° 249° (WSW) 05:55:27
DOVE 4 02 Jul 06:04:29 06:09:15 38° 109° (ESE) 06:14:10 437.250
NOAA 18 02 Jul 06:06:03 06:11:33 63° 282° (WNW) 06:17:07 137.9125
LilacSat-2 02 Jul 06:08:59 06:12:50 55° 280° (W) 06:16:42 437.200
CUTE-I 02 Jul 06:18:34 06:23:48 53° 280° (W) 06:29:04 437.470
HO-68 02 Jul 06:19:19 06:25:07 27° 119° (ESE) 06:30:56 435.675
CUBESAT XI-V 02 Jul 06:32:48 06:36:55 30° 250° (WSW) 06:41:02 437.345
